EZY75CE LTFE-LTFM

Flight info

Callsign EZY75CE
Flight time N/A
Altitude 34000
Route AKBUK UN618 DUGLA/N0456F350 UZ713 INBET
Aircraft A320/M-SDE3FGHIRWY/LB1

Departure

Time 2026-05-08 13:49
Airport Milas Bodrum International Airport (LTFE)

Arrival

Time N/A
Airport İstanbul Airport (LTFM)
Time Latitude Longitude Altitude Speed Heading
2026-05-08 13:36 37.24553 27.67171 26 ft 0 kts 193°
2026-05-08 13:41 37.24560 27.67173 22 ft 4 kts 192°
2026-05-08 13:41 37.24587 27.67177 22 ft 4 kts 174°
2026-05-08 13:41 37.24611 27.67168 25 ft 4 kts 132°
2026-05-08 13:42 37.24617 27.67157 25 ft 0 kts 108°
2026-05-08 13:45 37.24608 27.67192 23 ft 11 kts 107°
2026-05-08 13:45 37.24588 27.67278 23 ft 9 kts 106°
2026-05-08 13:45 37.24567 27.67369 23 ft 14 kts 107°
2026-05-08 13:45 37.24541 27.67474 23 ft 12 kts 107°
2026-05-08 13:46 37.24520 27.67563 26 ft 10 kts 107°
2026-05-08 13:46 37.24494 27.67671 24 ft 14 kts 107°
2026-05-08 13:46 37.24468 27.67777 24 ft 12 kts 107°
2026-05-08 13:46 37.24447 27.67866 27 ft 10 kts 106°
2026-05-08 13:47 37.24429 27.67941 25 ft 8 kts 106°
2026-05-08 13:47 37.24425 27.68001 25 ft 6 kts 72°
2026-05-08 13:47 37.24454 27.68037 25 ft 7 kts 33°
2026-05-08 13:47 37.24521 27.68073 25 ft 11 kts 18°
2026-05-08 13:48 37.24576 27.68039 25 ft 9 kts 288°
2026-05-08 13:48 37.24595 27.67957 27 ft 14 kts 286°
2026-05-08 13:48 37.24681 27.67590 28 ft 80 kts 287°
2026-05-08 13:48 37.24910 27.66628 19 ft 147 kts 286°
2026-05-08 13:49 37.25241 27.65260 478 ft 167 kts 285°
2026-05-08 13:49 37.25538 27.63846 1322 ft 167 kts 283°
2026-05-08 13:49 37.25830 27.62372 1784 ft 185 kts 285°
2026-05-08 13:49 37.26185 27.60727 2109 ft 205 kts 285°
2026-05-08 13:50 37.26572 27.58912 2448 ft 227 kts 285°
2026-05-08 13:50 37.26998 27.56898 2785 ft 251 kts 285°
2026-05-08 13:50 37.27459 27.54701 3380 ft 266 kts 284°
2026-05-08 13:50 37.27928 27.52438 4252 ft 270 kts 284°
2026-05-08 13:51 37.28398 27.50148 5176 ft 272 kts 283°
2026-05-08 13:51 37.28870 27.47850 6082 ft 273 kts 283°
2026-05-08 13:51 37.29386 27.45556 6963 ft 275 kts 290°
2026-05-08 13:51 37.30422 27.43527 7787 ft 281 kts 312°
2026-05-08 13:52 37.32026 27.42141 8631 ft 289 kts 334°
2026-05-08 13:52 37.34018 27.41638 9449 ft 300 kts 358°
2026-05-08 13:52 37.36075 27.42235 10203 ft 311 kts 24°
2026-05-08 13:52 37.37968 27.43759 10522 ft 335 kts 36°
2026-05-08 13:53 37.39835 27.45690 10719 ft 359 kts 34°
2026-05-08 13:53 37.42067 27.47240 10865 ft 376 kts 17°
2026-05-08 13:53 37.44643 27.47878 11351 ft 379 kts 358°
2026-05-08 13:53 37.47247 27.47537 12067 ft 375 kts 341°
2026-05-08 13:54 37.49614 27.46330 12794 ft 371 kts 328°
2026-05-08 13:54 37.51912 27.44841 13536 ft 372 kts 330°
2026-05-08 13:54 37.54260 27.43447 14219 ft 374 kts 332°
2026-05-08 13:54 37.56639 27.42106 14848 ft 375 kts 333°
2026-05-08 13:55 37.59038 27.40782 15432 ft 378 kts 333°
2026-05-08 13:55 37.61430 27.39459 16013 ft 379 kts 333°
2026-05-08 13:55 37.66307 27.36752 17183 ft 383 kts 333°
2026-05-08 13:56 37.68756 27.35414 17752 ft 384 kts 333°
2026-05-08 13:56 37.71217 27.34081 18345 ft 385 kts 333°
2026-05-08 13:56 37.73690 27.32746 18808 ft 388 kts 333°
2026-05-08 13:56 37.76181 27.31394 19267 ft 391 kts 333°
2026-05-08 13:57 37.78685 27.30027 19716 ft 393 kts 333°
2026-05-08 13:57 37.81208 27.28645 20171 ft 396 kts 332°
2026-05-08 13:57 37.83740 27.27257 20610 ft 399 kts 332°
2026-05-08 13:57 37.86294 27.25855 21035 ft 402 kts 332°
2026-05-08 13:58 37.88865 27.24443 21451 ft 404 kts 332°
2026-05-08 13:58 37.91453 27.23020 21871 ft 406 kts 332°
2026-05-08 13:58 37.94019 27.21606 22273 ft 408 kts 332°
2026-05-08 13:58 37.96632 27.20165 22671 ft 411 kts 332°
2026-05-08 13:59 37.99258 27.18716 23015 ft 413 kts 332°
2026-05-08 13:59 38.01895 27.17262 23426 ft 414 kts 332°
2026-05-08 13:59 38.04545 27.15800 23768 ft 417 kts 332°
2026-05-08 13:59 38.07211 27.14324 24081 ft 419 kts 331°
2026-05-08 14:00 38.09889 27.12841 24398 ft 421 kts 331°
2026-05-08 14:00 38.12582 27.11350 24661 ft 424 kts 331°
2026-05-08 14:00 38.15293 27.09850 24937 ft 427 kts 331°
2026-05-08 14:00 38.18021 27.08341 25210 ft 429 kts 331°
2026-05-08 14:01 38.20767 27.06819 25496 ft 431 kts 331°
2026-05-08 14:01 38.23528 27.05286 25732 ft 433 kts 331°
2026-05-08 14:01 38.26298 27.03747 25989 ft 435 kts 330°
2026-05-08 14:01 38.29136 27.02347 26240 ft 442 kts 337°
2026-05-08 14:02 38.32183 27.01540 26497 ft 453 kts 347°
2026-05-08 14:02 38.35368 27.01434 26756 ft 464 kts 358°
2026-05-08 14:02 38.38599 27.01954 27000 ft 471 kts
2026-05-08 14:02 38.41804 27.02552 27201 ft 473 kts
2026-05-08 14:03 38.45075 27.03159 27414 ft 476 kts
2026-05-08 14:03 38.48358 27.03765 27728 ft 477 kts
2026-05-08 14:03 38.51650 27.04370 28198 ft 477 kts
2026-05-08 14:03 38.54928 27.04971 28725 ft 475 kts
2026-05-08 14:04 38.58199 27.05570 29202 ft 474 kts
2026-05-08 14:04 38.61466 27.06165 29594 ft 473 kts
2026-05-08 14:04 38.64722 27.06759 29931 ft 473 kts
2026-05-08 14:04 38.67984 27.07361 30259 ft 473 kts
2026-05-08 14:05 38.71244 27.07965 30599 ft 473 kts
2026-05-08 14:05 38.74484 27.08566 31007 ft 469 kts
2026-05-08 14:05 38.77707 27.09165 31383 ft 467 kts
2026-05-08 14:05 38.80923 27.09760 31713 ft 466 kts
2026-05-08 14:06 38.84133 27.10352 32021 ft 466 kts
2026-05-08 14:06 38.87341 27.10944 32331 ft 465 kts
2026-05-08 14:06 38.90545 27.11535 32660 ft 465 kts
2026-05-08 14:06 38.93743 27.12130 32996 ft 464 kts
2026-05-08 14:07 38.96932 27.12727 33326 ft 463 kts
2026-05-08 14:07 39.00079 27.13312 33635 ft 462 kts
2026-05-08 14:07 39.03261 27.13900 33935 ft 462 kts
2026-05-08 14:07 39.06445 27.14482 34116 ft 463 kts
2026-05-08 14:08 39.09641 27.15059 34141 ft 465 kts
2026-05-08 14:08 39.16048 27.16218 34145 ft 465 kts
2026-05-08 14:09 39.22458 27.17392 34125 ft 465 kts
2026-05-08 14:09 39.28897 27.18571 34137 ft 468 kts
2026-05-08 14:10 39.35340 27.19752 34138 ft 467 kts
2026-05-08 14:10 39.40684 27.20734 34134 ft 466 kts
2026-05-08 14:11 39.47109 27.21927 34136 ft 466 kts
2026-05-08 14:11 39.53498 27.22209 34134 ft 455 kts 349°
2026-05-08 14:12 39.59820 27.21774 34133 ft 455 kts 350°
2026-05-08 14:12 39.66143 27.21357 34131 ft 455 kts 350°
2026-05-08 14:13 39.72468 27.20945 34146 ft 454 kts 351°
2026-05-08 14:13 39.78739 27.20524 34142 ft 454 kts 351°
2026-05-08 14:14 39.85044 27.20097 34142 ft 454 kts 351°
2026-05-08 14:14 39.91345 27.19680 34145 ft 453 kts 352°
2026-05-08 14:15 39.97661 27.19535 34137 ft 459 kts
2026-05-08 14:15 40.03950 27.21467 34127 ft 468 kts 12°
2026-05-08 14:16 40.10159 27.24022 34136 ft 468 kts 13°
2026-05-08 14:16 40.16373 27.26554 34050 ft 469 kts 11°
2026-05-08 14:16 40.19507 27.27472 33226 ft 468 kts
2026-05-08 14:17 40.22756 27.27798 32216 ft 469 kts 358°
2026-05-08 14:17 40.26031 27.27980 31259 ft 473 kts 359°
2026-05-08 14:17 40.29325 27.28185 30329 ft 476 kts 360°
2026-05-08 14:17 40.32656 27.28411 29107 ft 482 kts 360°
2026-05-08 14:18 40.36012 27.28652 28028 ft 484 kts
2026-05-08 14:18 40.39359 27.28902 27423 ft 477 kts 360°
2026-05-08 14:18 40.42617 27.29146 27185 ft 461 kts 360°
2026-05-08 14:18 40.45761 27.29378 27097 ft 443 kts 359°
2026-05-08 14:19 40.48793 27.29592 27133 ft 432 kts 359°
2026-05-08 14:19 40.51781 27.29789 27125 ft 429 kts 359°
2026-05-08 14:19 40.54760 27.29980 27128 ft 428 kts 359°
2026-05-08 14:19 40.57734 27.30174 27055 ft 427 kts 359°
2026-05-08 14:20 40.60674 27.30372 26109 ft 422 kts 359°
2026-05-08 14:20 40.63610 27.30577 25614 ft 420 kts 359°
2026-05-08 14:20 40.66527 27.30787 25383 ft 419 kts 359°
2026-05-08 14:20 40.69436 27.30990 25147 ft 418 kts 359°
2026-05-08 14:21 40.72294 27.30921 24920 ft 413 kts 349°
2026-05-08 14:21 40.75126 27.30202 24684 ft 407 kts 340°
2026-05-08 14:21 40.77754 27.28904 24449 ft 401 kts 330°
2026-05-08 14:21 40.80249 27.27361 24222 ft 400 kts 330°
2026-05-08 14:22 40.82767 27.25816 23996 ft 399 kts 331°
2026-05-08 14:22 40.85283 27.24283 23770 ft 398 kts 331°
2026-05-08 14:22 40.87796 27.22753 23518 ft 397 kts 331°
2026-05-08 14:22 40.90300 27.21222 23252 ft 396 kts 331°
2026-05-08 14:23 40.92800 27.19685 22991 ft 396 kts 331°
2026-05-08 14:23 40.95297 27.18145 22726 ft 395 kts 331°
2026-05-08 14:23 40.97788 27.16608 22470 ft 395 kts 331°
2026-05-08 14:23 41.00292 27.15112 22207 ft 396 kts 336°
2026-05-08 14:24 41.02946 27.14256 21950 ft 400 kts 351°
2026-05-08 14:24 41.05735 27.14295 21692 ft 404 kts
2026-05-08 14:24 41.08460 27.15249 21438 ft 407 kts 21°
2026-05-08 14:24 41.10937 27.17060 21080 ft 408 kts 36°
2026-05-08 14:25 41.13162 27.19375 20572 ft 406 kts 38°
2026-05-08 14:25 41.15365 27.21714 20080 ft 404 kts 39°
2026-05-08 14:25 41.17559 27.24044 19587 ft 403 kts 39°
2026-05-08 14:25 41.19744 27.26363 19071 ft 403 kts 39°
2026-05-08 14:26 41.21924 27.28676 18670 ft 399 kts 39°
2026-05-08 14:26 41.24082 27.30970 18184 ft 393 kts 40°
2026-05-08 14:26 41.25886 27.33580 17988 ft 378 kts 62°
2026-05-08 14:26 41.26726 27.36775 17832 ft 359 kts 86°
2026-05-08 14:27 41.26571 27.39981 17699 ft 340 kts 109°
2026-05-08 14:27 41.25596 27.42728 17478 ft 321 kts 129°
2026-05-08 14:27 41.24246 27.45046 16884 ft 315 kts 132°
2026-05-08 14:27 41.22866 27.47318 16496 ft 315 kts 132°
2026-05-08 14:28 41.21483 27.49571 16147 ft 314 kts 132°
2026-05-08 14:28 41.20106 27.51814 15825 ft 313 kts 131°